Weather History for Ottumwa, IA

Change the Weather History Date:

Monday, April 21, 2014

  Actual Average Record
Temperature  
Mean Temperature 60 °F 53 °F  
Max Temperature 71 °F 64 °F 89 °F (1980)
Min Temperature 49 °F 42 °F 25 °F (1934)
Degree Days  
Heating Degree Days 5 13  
Month to date heating degree days 347 338  
Since 1 July heating degree days 6838 6034  
Cooling Degree Days 0 1  
Month to date cooling degree days 8 1  
Year to date cooling degree days 8 2  
Growing Degree Days 12 (Base 50)    
Moisture  
Dew Point 55 °F    
Average Humidity 75    
Maximum Humidity 97    
Minimum Humidity 52    
Precipitation  
Precipitation 0.16 in 0.12 in 1.38 in (1972)
Month to date precipitation 1.65 2.21  
Year to date precipitation 3.51 6.63  
Sea Level Pressure  
Sea Level Pressure 29.94 in    
Wind  
Wind Speed 11 mph (West)    
Max Wind Speed 26 mph    
Max Gust Speed 31 mph    
Visibility 8 miles    
Events Rain , Thunderstorm    
T = Trace of Precipitation, MM = Missing Value Source: NWS Daily Summary

Daily Weather History Graph

Daily Weather History Graph

Search for Another Location

Airport:

Trip Planner

Search our weather history database for the weather conditions in past years. The results will help you decide how hot, cold, wet, or windy it might be!

Date:

Astronomy

Apr. 21, 2014 Rise Set
Actual Time 6:21 AM CDT 7:56 PM CDT
Civil Twilight 5:52 AM CDT 8:25 PM CDT
Nautical Twilight 5:17 AM CDT 9:00 PM CDT
Astronomical Twilight 4:40 AM CDT 9:37 PM CDT
Moon 1:27 AM CDT (4/21) 11:48 AM CDT (4/21)
Length of Visible Light 14h 32m
Length of Day
13h 34m
Waning Gibbous, 57% of the Moon is Illuminated
Apr 21
Waning Gibbous
Apr 22
Last Quarter
Apr 29
New
May 6
First Quarter
May 14
Full

Hourly Weather History & Observations

Time (CDT) Temp. Dew Point Humidity Pressure Visibility Wind Dir Wind Speed Gust Speed Precip Events Conditions
12:53 AM 64.0 °F 50.0 °F 60% 29.96 in 10.0 mi South 6.9 mph - N/A   Scattered Clouds
1:53 AM 63.0 °F 51.1 °F 65% 29.96 in 10.0 mi SSW 9.2 mph - N/A   Clear
2:53 AM 64.9 °F 52.0 °F 63% 29.94 in 10.0 mi SW 6.9 mph - 0.00 in Rain Light Rain
3:53 AM 63.0 °F 55.0 °F 75% 29.93 in 10.0 mi West 10.4 mph - 0.00 in Rain Light Rain
4:53 AM 62.1 °F 55.9 °F 80% 29.94 in 10.0 mi WNW 8.1 mph - 0.00 in   Overcast
5:53 AM 62.1 °F 55.9 °F 80% 29.93 in 10.0 mi WNW 9.2 mph - 0.00 in   Overcast
6:53 AM 59.0 °F 57.0 °F 93% 29.94 in 9.0 mi SSW 3.5 mph - 0.01 in Rain Light Rain
7:53 AM 61.0 °F 57.0 °F 87% 29.95 in 7.0 mi SSW 4.6 mph - 0.00 in Rain Light Rain
8:53 AM 63.0 °F 57.9 °F 84% 29.95 in 9.0 mi WSW 5.8 mph - 0.00 in   Mostly Cloudy
9:53 AM 63.0 °F 57.9 °F 84% 29.96 in 9.0 mi WSW 6.9 mph - 0.00 in Rain Light Rain
10:02 AM 62.1 °F 57.9 °F 86% 29.96 in 5.0 mi West 8.1 mph - 0.01 in Rain Light Rain
10:14 AM 61.0 °F 57.9 °F 90% 29.96 in 3.0 mi WSW 10.4 mph - 0.03 in Rain Rain
10:22 AM 61.0 °F 57.9 °F 90% 29.97 in 2.5 mi WSW 9.2 mph - 0.05 in Rain Rain
10:33 AM 61.0 °F 59.0 °F 93% 29.97 in 1.8 mi WSW 5.8 mph - 0.08 in Rain Rain
10:51 AM 60.8 °F 59.0 °F 94% 29.96 in 3.0 mi SSW 5.8 mph - 0.12 in Rain Light Rain
10:53 AM 61.0 °F 59.0 °F 93% 29.96 in 3.0 mi SSW 6.9 mph - 0.12 in Rain Light Rain
10:58 AM 61.0 °F 59.0 °F 93% 29.96 in 3.0 mi South 6.9 mph - 0.00 in Rain Light Rain
11:28 AM 60.1 °F 59.0 °F 96% 29.96 in 2.5 mi SSW 9.2 mph - 0.03 in Rain Light Rain
11:38 AM 61.0 °F 59.0 °F 93% 29.96 in 4.0 mi SW 6.9 mph - 0.03 in Rain Light Rain
11:53 AM 61.0 °F 59.0 °F 93% 29.94 in 6.0 mi SW 10.4 mph - 0.03 in Rain Light Rain
12:53 PM 64.0 °F 60.1 °F 87% 29.94 in 10.0 mi West 11.5 mph - 0.00 in   Mostly Cloudy
1:53 PM 66.9 °F 60.1 °F 79% 29.92 in 10.0 mi West 13.8 mph - N/A   Overcast
2:53 PM 69.1 °F 60.1 °F 73% 29.91 in 10.0 mi WSW 16.1 mph 23.0 mph N/A   Scattered Clouds
3:53 PM 71.1 °F 60.1 °F 68% 29.88 in 10.0 mi West 9.2 mph 18.4 mph N/A   Scattered Clouds
4:15 PM 70.0 °F 59.0 °F 68% 29.89 in 10.0 mi West 10.4 mph - N/A Thunderstorm Scattered Clouds
4:53 PM 68.0 °F 57.9 °F 70% 29.89 in 10.0 mi North 12.7 mph - N/A Thunderstorm Overcast
5:17 PM 70.0 °F 57.0 °F 63% 29.90 in 10.0 mi NNW 23.0 mph 28.8 mph N/A   Overcast
5:53 PM 68.0 °F 55.9 °F 65% 29.91 in 10.0 mi NNW 23.0 mph - N/A   Overcast
6:53 PM 64.9 °F 46.9 °F 52% 29.92 in 10.0 mi NNW 13.8 mph - N/A   Partly Cloudy
7:53 PM 57.9 °F 48.0 °F 70% 29.93 in 10.0 mi NNW 8.1 mph - N/A   Clear
8:53 PM 57.0 °F 44.1 °F 62% 29.95 in 10.0 mi NNW 11.5 mph - N/A   Clear
9:53 PM 55.9 °F 42.1 °F 60% 29.98 in 10.0 mi NNW 12.7 mph - N/A   Clear
10:53 PM 54.0 °F 39.9 °F 59% 29.99 in 10.0 mi NNW 16.1 mph - N/A   Clear
11:53 PM 51.1 °F 39.0 °F 63% 30.01 in 10.0 mi NNW 17.3 mph - N/A   Clear